Year,Month,Day,Hour,Minute,Value (Times are PST for temperature in C)
2017,06,25,00,00,20.20
2017,06,25,00,01,20.20
2017,06,25,00,02,20.20
2017,06,25,00,03,20.20
2017,06,25,00,04,20.20
2017,06,25,00,05,20.20
2017,06,25,00,06,20.10
2017,06,25,00,07,20.10
2017,06,25,00,08,20.10
2017,06,25,00,09,20.10
2017,06,25,00,10,20.10
2017,06,25,00,11,20.10
2017,06,25,00,12,20.20
2017,06,25,00,13,20.20
2017,06,25,00,14,20.20
2017,06,25,00,15,20.30
2017,06,25,00,16,20.30
2017,06,25,00,17,20.40
2017,06,25,00,18,20.40
2017,06,25,00,19,20.40
2017,06,25,00,20,20.30
2017,06,25,00,21,20.30
2017,06,25,00,22,20.30
2017,06,25,00,23,20.20
2017,06,25,00,24,20.20
2017,06,25,00,25,20.20
2017,06,25,00,26,20.20
2017,06,25,00,27,20.20
2017,06,25,00,28,20.10
2017,06,25,00,29,20.10
2017,06,25,00,30,20.10
2017,06,25,00,31,20.10
2017,06,25,00,32,20.10
2017,06,25,00,33,20.10
2017,06,25,00,34,20.10
2017,06,25,00,35,20.10
2017,06,25,00,36,20.00
2017,06,25,00,37,19.90
2017,06,25,00,38,19.90
2017,06,25,00,39,19.90
2017,06,25,00,40,19.90
2017,06,25,00,41,19.90
2017,06,25,00,42,19.80
2017,06,25,00,43,19.80
2017,06,25,00,44,19.80
2017,06,25,00,45,19.70
2017,06,25,00,46,19.70
2017,06,25,00,47,19.70
2017,06,25,00,48,19.70
2017,06,25,00,49,19.70
2017,06,25,00,50,19.70
2017,06,25,00,51,19.60
2017,06,25,00,52,19.60
2017,06,25,00,53,19.60
2017,06,25,00,54,19.50
2017,06,25,00,55,19.50
2017,06,25,00,56,19.50
2017,06,25,00,57,19.40
2017,06,25,00,58,19.40
2017,06,25,00,59,19.40
2017,06,25,01,00,19.30
2017,06,25,01,01,19.30
2017,06,25,01,02,19.20
2017,06,25,01,03,19.10
2017,06,25,01,04,19.10
2017,06,25,01,05,19.10
2017,06,25,01,06,19.10
2017,06,25,01,07,19.10
2017,06,25,01,08,19.10
2017,06,25,01,09,19.10
2017,06,25,01,10,19.10
2017,06,25,01,11,19.10
2017,06,25,01,12,19.10
2017,06,25,01,13,19.10
2017,06,25,01,14,19.10
2017,06,25,01,15,19.10
2017,06,25,01,16,19.10
2017,06,25,01,17,19.10
2017,06,25,01,18,19.10
2017,06,25,01,19,19.10
2017,06,25,01,20,19.10
2017,06,25,01,21,19.10
2017,06,25,01,22,19.10
2017,06,25,01,23,19.10
2017,06,25,01,24,19.10
2017,06,25,01,25,19.10
2017,06,25,01,26,19.10
2017,06,25,01,27,18.90
2017,06,25,01,28,18.90
2017,06,25,01,29,18.90
2017,06,25,01,30,18.90
2017,06,25,01,31,18.90
2017,06,25,01,32,18.90
2017,06,25,01,33,18.90
2017,06,25,01,34,18.90
2017,06,25,01,35,18.90
2017,06,25,01,36,18.90
2017,06,25,01,37,18.90
2017,06,25,01,38,18.90
2017,06,25,01,39,18.90
2017,06,25,01,40,18.90
2017,06,25,01,41,18.80
2017,06,25,01,42,18.80
2017,06,25,01,43,18.80
2017,06,25,01,44,18.80
2017,06,25,01,45,18.90
2017,06,25,01,46,18.90
2017,06,25,01,47,18.90
2017,06,25,01,48,18.90
2017,06,25,01,49,18.90
2017,06,25,01,50,18.90
2017,06,25,01,51,18.90
2017,06,25,01,52,18.90
2017,06,25,01,53,18.90
2017,06,25,01,54,18.90
2017,06,25,01,55,18.90
2017,06,25,01,56,18.90
2017,06,25,01,57,18.90
2017,06,25,01,58,18.90
2017,06,25,01,59,18.90
2017,06,25,02,00,18.90
2017,06,25,02,01,18.90
2017,06,25,02,02,18.90
2017,06,25,02,03,18.80
2017,06,25,02,04,18.80
2017,06,25,02,05,18.80
2017,06,25,02,06,18.80
2017,06,25,02,07,18.80
2017,06,25,02,08,18.70
2017,06,25,02,09,18.70
2017,06,25,02,10,18.70
2017,06,25,02,11,18.80
2017,06,25,02,12,18.80
2017,06,25,02,13,18.90
2017,06,25,02,14,18.90
2017,06,25,02,15,19.00
2017,06,25,02,16,19.10
2017,06,25,02,17,19.10
2017,06,25,02,18,19.20
2017,06,25,02,19,19.30
2017,06,25,02,20,19.40
2017,06,25,02,21,19.40
2017,06,25,02,22,19.50
2017,06,25,02,23,19.50
2017,06,25,02,24,19.60
2017,06,25,02,25,19.60
2017,06,25,02,26,19.70
2017,06,25,02,27,19.80
2017,06,25,02,28,19.90
2017,06,25,02,29,20.00
2017,06,25,02,30,20.10
2017,06,25,02,31,20.20
2017,06,25,02,32,20.30
2017,06,25,02,33,20.40
2017,06,25,02,34,20.50
2017,06,25,02,35,20.70
2017,06,25,02,36,20.80
2017,06,25,02,37,20.90
2017,06,25,02,38,21.00
2017,06,25,02,39,21.10
2017,06,25,02,40,21.20
2017,06,25,02,41,21.30
2017,06,25,02,42,21.30
2017,06,25,02,43,21.40
2017,06,25,02,44,21.50
2017,06,25,02,45,21.60
2017,06,25,02,46,21.60
2017,06,25,02,47,21.70
2017,06,25,02,48,21.70
2017,06,25,02,49,21.80
2017,06,25,02,50,21.80
2017,06,25,02,51,21.90
2017,06,25,02,52,21.90
2017,06,25,02,53,21.90
2017,06,25,02,54,21.90
2017,06,25,02,55,21.80
2017,06,25,02,56,21.80
2017,06,25,02,57,21.80
2017,06,25,02,58,21.70
2017,06,25,02,59,21.70
2017,06,25,03,00,21.60
2017,06,25,03,01,21.60
2017,06,25,03,02,21.50
2017,06,25,03,03,21.40
2017,06,25,03,04,21.30
2017,06,25,03,05,21.20
2017,06,25,03,06,21.10
2017,06,25,03,07,21.00
2017,06,25,03,08,20.90
2017,06,25,03,09,20.90
2017,06,25,03,10,20.80
2017,06,25,03,11,20.70
2017,06,25,03,12,20.70
2017,06,25,03,13,20.60
2017,06,25,03,14,20.60
2017,06,25,03,15,20.50
2017,06,25,03,16,20.50
2017,06,25,03,17,20.50
2017,06,25,03,18,20.40
2017,06,25,03,19,20.40
2017,06,25,03,20,20.40
2017,06,25,03,21,20.30
2017,06,25,03,22,20.30
2017,06,25,03,23,20.30
2017,06,25,03,24,20.20
2017,06,25,03,25,20.20
2017,06,25,03,26,20.10
2017,06,25,03,27,20.10
2017,06,25,03,28,19.90
2017,06,25,03,29,19.90
2017,06,25,03,30,19.80
2017,06,25,03,31,19.70
2017,06,25,03,32,19.60
2017,06,25,03,33,19.50
2017,06,25,03,34,19.40
2017,06,25,03,35,19.30
2017,06,25,03,36,19.20
2017,06,25,03,37,19.10
2017,06,25,03,38,18.90
2017,06,25,03,39,18.90
2017,06,25,03,40,18.80
2017,06,25,03,41,18.70
2017,06,25,03,42,18.60
2017,06,25,03,43,18.50
2017,06,25,03,44,18.50
2017,06,25,03,45,18.40
2017,06,25,03,46,18.30
2017,06,25,03,47,18.20
2017,06,25,03,48,18.20
2017,06,25,03,49,18.20
2017,06,25,03,50,18.10
2017,06,25,03,51,18.10
2017,06,25,03,52,18.00
2017,06,25,03,53,17.90
2017,06,25,03,54,17.90
2017,06,25,03,55,18.00
2017,06,25,03,56,18.10
2017,06,25,03,57,18.10
2017,06,25,03,58,18.20
2017,06,25,03,59,18.20
2017,06,25,04,00,18.30
2017,06,25,04,01,18.40
2017,06,25,04,02,18.40
2017,06,25,04,03,18.50
2017,06,25,04,04,18.50
2017,06,25,04,05,18.60
2017,06,25,04,06,18.60
2017,06,25,04,07,18.70
2017,06,25,04,08,18.70
2017,06,25,04,09,18.70
2017,06,25,04,10,18.70
2017,06,25,04,11,18.70
2017,06,25,04,12,18.60
2017,06,25,04,13,18.60
2017,06,25,04,14,18.60
2017,06,25,04,15,18.60
2017,06,25,04,16,18.50
2017,06,25,04,17,18.50
2017,06,25,04,18,18.50
2017,06,25,04,19,18.50
2017,06,25,04,20,18.50
2017,06,25,04,21,18.40
2017,06,25,04,22,18.40
2017,06,25,04,23,18.40
2017,06,25,04,24,18.40
2017,06,25,04,25,18.30
2017,06,25,04,26,18.30
2017,06,25,04,27,18.40
2017,06,25,04,28,18.40
2017,06,25,04,29,18.50
2017,06,25,04,30,18.50
2017,06,25,04,31,18.60
2017,06,25,04,32,18.60
2017,06,25,04,33,18.70
2017,06,25,04,34,18.70
2017,06,25,04,35,18.80
2017,06,25,04,36,18.80
2017,06,25,04,37,18.80
2017,06,25,04,38,18.80
2017,06,25,04,39,18.80
2017,06,25,04,40,18.80
2017,06,25,04,41,18.70
2017,06,25,04,42,18.80
2017,06,25,04,43,18.80
2017,06,25,04,44,18.80
2017,06,25,04,45,18.80
2017,06,25,04,46,18.90
2017,06,25,04,47,18.90
2017,06,25,04,48,18.90
2017,06,25,04,49,18.90
2017,06,25,04,50,18.90
2017,06,25,04,51,18.90
2017,06,25,04,52,18.90
2017,06,25,04,53,18.80
2017,06,25,04,54,18.70
2017,06,25,04,55,18.70
2017,06,25,04,56,18.60
2017,06,25,04,57,18.50
2017,06,25,04,58,18.50
2017,06,25,04,59,18.40
2017,06,25,05,00,18.40
2017,06,25,05,01,18.40
2017,06,25,05,02,18.40
2017,06,25,05,03,18.40
2017,06,25,05,04,18.40
2017,06,25,05,05,18.50
2017,06,25,05,06,18.50
2017,06,25,05,07,18.60
2017,06,25,05,08,18.60
2017,06,25,05,09,18.60
2017,06,25,05,10,18.70
2017,06,25,05,11,18.70
2017,06,25,05,12,18.60
2017,06,25,05,13,18.60
2017,06,25,05,14,18.50
2017,06,25,05,15,18.50
2017,06,25,05,16,18.40
2017,06,25,05,17,18.40
2017,06,25,05,18,18.30
2017,06,25,05,19,18.20
2017,06,25,05,20,18.10
2017,06,25,05,21,17.90
2017,06,25,05,22,17.90
2017,06,25,05,23,17.80
2017,06,25,05,24,17.70
2017,06,25,05,25,17.70
2017,06,25,05,26,17.60
2017,06,25,05,27,17.60
2017,06,25,05,28,17.60
2017,06,25,05,29,17.50
2017,06,25,05,30,17.50
2017,06,25,05,31,17.50
2017,06,25,05,32,17.40
2017,06,25,05,33,17.40
2017,06,25,05,34,17.30
2017,06,25,05,35,17.30
2017,06,25,05,36,17.20
2017,06,25,05,37,17.10
2017,06,25,05,38,17.10
2017,06,25,05,39,17.10
2017,06,25,05,40,17.10
2017,06,25,05,41,17.10
2017,06,25,05,42,17.10
2017,06,25,05,43,17.10
2017,06,25,05,44,17.10
2017,06,25,05,45,17.20
2017,06,25,05,46,17.30
2017,06,25,05,47,17.30
2017,06,25,05,48,17.40
2017,06,25,05,49,17.50
2017,06,25,05,50,17.60
2017,06,25,05,51,17.80
2017,06,25,05,52,17.90
2017,06,25,05,53,18.10
2017,06,25,05,54,18.30
2017,06,25,05,55,18.50
2017,06,25,05,56,18.70
2017,06,25,05,57,18.90
2017,06,25,05,58,19.00
2017,06,25,05,59,19.10
2017,06,25,06,00,19.30
2017,06,25,06,01,19.40
2017,06,25,06,02,19.60
2017,06,25,06,03,19.70
2017,06,25,06,04,19.90
2017,06,25,06,05,19.90
2017,06,25,06,06,20.00
2017,06,25,06,07,20.10
2017,06,25,06,08,20.20
2017,06,25,06,09,20.20
2017,06,25,06,10,20.30
2017,06,25,06,11,20.30
2017,06,25,06,12,20.40
2017,06,25,06,13,20.50
2017,06,25,06,14,20.50
2017,06,25,06,15,20.50
2017,06,25,06,16,20.60
2017,06,25,06,17,20.60
2017,06,25,06,18,20.60
2017,06,25,06,19,20.60
2017,06,25,06,20,20.60
2017,06,25,06,21,20.50
2017,06,25,06,22,20.50
2017,06,25,06,23,20.50
2017,06,25,06,24,20.50
2017,06,25,06,25,20.40
2017,06,25,06,26,20.40
2017,06,25,06,27,20.30
2017,06,25,06,28,20.30
2017,06,25,06,29,20.20
2017,06,25,06,30,20.20
2017,06,25,06,31,20.20
2017,06,25,06,32,20.10
2017,06,25,06,33,20.00
2017,06,25,06,34,19.90
2017,06,25,06,35,19.80
2017,06,25,06,36,19.70
2017,06,25,06,37,19.60
2017,06,25,06,38,19.50
2017,06,25,06,39,19.40
2017,06,25,06,40,19.30
2017,06,25,06,41,19.10
2017,06,25,06,42,19.10
2017,06,25,06,43,19.10
2017,06,25,06,44,19.00
2017,06,25,06,45,18.90
2017,06,25,06,46,18.90
2017,06,25,06,47,18.90
2017,06,25,06,48,18.90
2017,06,25,06,49,18.90
2017,06,25,06,50,18.90
2017,06,25,06,51,18.90
2017,06,25,06,52,18.90
2017,06,25,06,53,18.90
2017,06,25,06,54,19.00
2017,06,25,06,55,19.10
2017,06,25,06,56,19.10
2017,06,25,06,57,19.10
2017,06,25,06,58,19.10
2017,06,25,06,59,19.10
2017,06,25,07,00,19.10
2017,06,25,07,01,19.10
2017,06,25,07,02,19.10
2017,06,25,07,03,19.20
2017,06,25,07,04,19.30
2017,06,25,07,05,19.30
2017,06,25,07,06,19.30
2017,06,25,07,07,19.40
2017,06,25,07,08,19.40
2017,06,25,07,09,19.50
2017,06,25,07,10,19.50
2017,06,25,07,11,19.60
2017,06,25,07,12,19.70
2017,06,25,07,13,19.70
2017,06,25,07,14,19.80
2017,06,25,07,15,19.80
2017,06,25,07,16,19.80
2017,06,25,07,17,19.80
2017,06,25,07,18,19.90
2017,06,25,07,19,19.90
2017,06,25,07,20,20.00
2017,06,25,07,21,20.10
2017,06,25,07,22,20.20
2017,06,25,07,23,20.20
2017,06,25,07,24,20.20
2017,06,25,07,25,20.20
2017,06,25,07,26,20.20
2017,06,25,07,27,20.20
2017,06,25,07,28,20.20
2017,06,25,07,29,20.20
2017,06,25,07,30,20.20
2017,06,25,07,31,20.20
2017,06,25,07,32,20.20
2017,06,25,07,33,20.30
2017,06,25,07,34,20.30
2017,06,25,07,35,20.30
2017,06,25,07,36,20.30
2017,06,25,07,37,20.30
2017,06,25,07,38,20.30
2017,06,25,07,39,20.30
2017,06,25,07,40,20.30
2017,06,25,07,41,20.30
2017,06,25,07,42,20.30
2017,06,25,07,43,20.30
2017,06,25,07,44,20.30
2017,06,25,07,45,20.30
2017,06,25,07,46,20.30
2017,06,25,07,47,20.30
2017,06,25,07,48,20.30
2017,06,25,07,49,20.30
2017,06,25,07,50,20.20
2017,06,25,07,51,20.20
2017,06,25,07,52,20.20
2017,06,25,07,53,20.20
2017,06,25,07,54,20.20
2017,06,25,07,55,20.20
2017,06,25,07,56,20.20
2017,06,25,07,57,20.20
2017,06,25,07,58,20.20
2017,06,25,07,59,20.20
2017,06,25,08,00,20.20
2017,06,25,08,01,20.20
2017,06,25,08,02,20.20
2017,06,25,08,03,20.20
2017,06,25,08,04,20.20
2017,06,25,08,05,20.30
2017,06,25,08,06,20.30
2017,06,25,08,07,20.40
2017,06,25,08,08,20.40
2017,06,25,08,09,20.50
2017,06,25,08,10,20.50
2017,06,25,08,11,20.60
2017,06,25,08,12,20.60
2017,06,25,08,13,20.60
2017,06,25,08,14,20.70
2017,06,25,08,15,20.70
2017,06,25,08,16,20.70
2017,06,25,08,17,20.70
2017,06,25,08,18,20.70
2017,06,25,08,19,20.80
2017,06,25,08,20,20.80
2017,06,25,08,21,20.80
2017,06,25,08,22,20.80
2017,06,25,08,23,20.90
2017,06,25,08,24,20.80
2017,06,25,08,25,20.80
2017,06,25,08,26,20.80
2017,06,25,08,27,20.80
2017,06,25,08,28,20.80
2017,06,25,08,29,20.80
2017,06,25,08,30,20.80
2017,06,25,08,31,20.80
2017,06,25,08,32,20.80
2017,06,25,08,33,20.90
2017,06,25,08,34,20.90
2017,06,25,08,35,20.90
2017,06,25,08,36,20.90
2017,06,25,08,37,21.00
2017,06,25,08,38,21.00
2017,06,25,08,39,21.10
2017,06,25,08,40,21.20
2017,06,25,08,41,21.30
2017,06,25,08,42,21.30
2017,06,25,08,43,21.30
2017,06,25,08,44,21.40
2017,06,25,08,45,21.40
2017,06,25,08,46,21.40
2017,06,25,08,47,21.50
2017,06,25,08,48,21.60
2017,06,25,08,49,21.60
2017,06,25,08,50,21.60
2017,06,25,08,51,21.60
2017,06,25,08,52,21.60
2017,06,25,08,53,21.60
2017,06,25,08,54,21.60
2017,06,25,08,55,21.60
2017,06,25,08,56,21.60
2017,06,25,08,57,21.60
2017,06,25,08,58,21.60
2017,06,25,08,59,21.60
2017,06,25,09,00,21.60
2017,06,25,09,01,21.60
2017,06,25,09,02,21.60
2017,06,25,09,03,21.60
2017,06,25,09,04,21.60
2017,06,25,09,05,21.60
2017,06,25,09,06,21.70
2017,06,25,09,07,21.70
2017,06,25,09,08,21.70
2017,06,25,09,09,21.80
2017,06,25,09,10,21.80
2017,06,25,09,11,21.90
2017,06,25,09,12,21.90
2017,06,25,09,13,21.90
2017,06,25,09,14,21.80
2017,06,25,09,15,21.80
2017,06,25,09,16,21.90
2017,06,25,09,17,21.90
2017,06,25,09,18,21.90
2017,06,25,09,19,21.90
2017,06,25,09,20,21.90
2017,06,25,09,21,21.90
2017,06,25,09,22,22.00
2017,06,25,09,23,22.00
2017,06,25,09,24,22.00
2017,06,25,09,25,22.10
2017,06,25,09,26,22.10
2017,06,25,09,27,22.20
2017,06,25,09,28,22.20
2017,06,25,09,29,22.30
2017,06,25,09,30,22.40
2017,06,25,09,31,22.40
2017,06,25,09,32,22.40
2017,06,25,09,33,22.40
2017,06,25,09,34,22.40
2017,06,25,09,35,22.40
2017,06,25,09,36,22.30
2017,06,25,09,37,22.30
2017,06,25,09,38,22.20
2017,06,25,09,39,22.20
2017,06,25,09,40,22.20
2017,06,25,09,41,22.20
2017,06,25,09,42,22.20
2017,06,25,09,43,22.20
2017,06,25,09,44,22.20
2017,06,25,09,45,22.20
2017,06,25,09,46,22.30
2017,06,25,09,47,22.30
2017,06,25,09,48,22.30
2017,06,25,09,49,22.30
2017,06,25,09,50,22.30
2017,06,25,09,51,22.30
2017,06,25,09,52,22.30
2017,06,25,09,53,22.30
2017,06,25,09,54,22.30
2017,06,25,09,55,22.30
2017,06,25,09,56,22.30
2017,06,25,09,57,22.40
2017,06,25,09,58,22.40
2017,06,25,09,59,22.40
2017,06,25,10,00,22.50
2017,06,25,10,01,22.50
2017,06,25,10,02,22.50
2017,06,25,10,03,22.50
2017,06,25,10,04,22.50
2017,06,25,10,05,22.50
2017,06,25,10,06,22.60
2017,06,25,10,07,22.60
2017,06,25,10,08,22.60
2017,06,25,10,09,22.60
2017,06,25,10,10,22.70
2017,06,25,10,11,22.70
2017,06,25,10,12,22.80
2017,06,25,10,13,22.80
2017,06,25,10,14,22.90
2017,06,25,10,15,22.90
2017,06,25,10,16,22.90
2017,06,25,10,17,22.90
2017,06,25,10,18,23.00
2017,06,25,10,19,23.10
2017,06,25,10,20,23.10
2017,06,25,10,21,23.20
2017,06,25,10,22,23.30
2017,06,25,10,23,23.30
2017,06,25,10,24,23.30
2017,06,25,10,25,23.40
2017,06,25,10,26,23.40
2017,06,25,10,27,23.50
2017,06,25,10,28,23.60
2017,06,25,10,29,23.60
2017,06,25,10,30,23.60
2017,06,25,10,31,23.60
2017,06,25,10,32,23.60
2017,06,25,10,33,23.60
2017,06,25,10,34,23.60
2017,06,25,10,35,23.60
2017,06,25,10,36,23.70
2017,06,25,10,37,23.70
2017,06,25,10,38,23.70
2017,06,25,10,39,23.60
2017,06,25,10,40,23.40
2017,06,25,10,41,23.30
2017,06,25,10,42,23.10
2017,06,25,10,43,23.10
2017,06,25,10,44,22.90
2017,06,25,10,45,22.90
2017,06,25,10,46,23.00
2017,06,25,10,47,23.10
2017,06,25,10,48,23.20
2017,06,25,10,49,23.30
2017,06,25,10,50,23.30
2017,06,25,10,51,23.20
2017,06,25,10,52,23.20
2017,06,25,10,53,23.10
2017,06,25,10,54,23.00
2017,06,25,10,55,22.90
2017,06,25,10,56,22.80
2017,06,25,10,57,22.70
2017,06,25,10,58,22.70
2017,06,25,10,59,22.70
2017,06,25,11,00,22.60
2017,06,25,11,01,22.60
2017,06,25,11,02,22.60
2017,06,25,11,03,22.60
2017,06,25,11,04,22.60
2017,06,25,11,05,22.60
2017,06,25,11,06,22.60
2017,06,25,11,07,22.60
2017,06,25,11,08,22.60
2017,06,25,11,09,22.60
2017,06,25,11,10,22.70
2017,06,25,11,11,22.70
2017,06,25,11,12,22.80
2017,06,25,11,13,22.90
2017,06,25,11,14,22.90
2017,06,25,11,15,23.00
2017,06,25,11,16,23.10
2017,06,25,11,17,23.10
2017,06,25,11,18,23.10
2017,06,25,11,19,23.20
2017,06,25,11,20,23.20
2017,06,25,11,21,23.20
2017,06,25,11,22,23.10
2017,06,25,11,23,23.10
2017,06,25,11,24,23.20
2017,06,25,11,25,23.20
2017,06,25,11,26,23.20
2017,06,25,11,27,23.10
2017,06,25,11,28,23.10
2017,06,25,11,29,23.10
2017,06,25,11,30,23.10
2017,06,25,11,31,23.10
2017,06,25,11,32,23.20
2017,06,25,11,33,23.30
2017,06,25,11,34,23.30
2017,06,25,11,35,23.30
2017,06,25,11,36,23.30
2017,06,25,11,37,23.40
2017,06,25,11,38,23.40
2017,06,25,11,39,23.40
2017,06,25,11,40,23.30
2017,06,25,11,41,23.40
2017,06,25,11,42,23.40
2017,06,25,11,43,23.40
2017,06,25,11,44,23.40
2017,06,25,11,45,23.30
2017,06,25,11,46,23.30
2017,06,25,11,47,23.30
2017,06,25,11,48,23.30
2017,06,25,11,49,23.20
2017,06,25,11,50,23.30
2017,06,25,11,51,23.30
2017,06,25,11,52,23.30
2017,06,25,11,53,23.40
2017,06,25,11,54,23.50
2017,06,25,11,55,23.60
2017,06,25,11,56,23.60
2017,06,25,11,57,23.60
2017,06,25,11,58,23.60
2017,06,25,11,59,23.50
2017,06,25,12,00,23.40
2017,06,25,12,01,23.40
2017,06,25,12,02,23.30
2017,06,25,12,03,23.30
2017,06,25,12,04,23.40
2017,06,25,12,05,23.50
2017,06,25,12,06,23.60
2017,06,25,12,07,23.70
2017,06,25,12,08,23.70
2017,06,25,12,09,23.80
2017,06,25,12,10,23.80
2017,06,25,12,11,23.90
2017,06,25,12,12,23.90
2017,06,25,12,13,24.00
2017,06,25,12,14,24.10
2017,06,25,12,15,24.10
2017,06,25,12,16,24.10
2017,06,25,12,17,24.10
2017,06,25,12,18,24.10
2017,06,25,12,19,24.00
2017,06,25,12,20,23.90
2017,06,25,12,21,23.90
2017,06,25,12,22,23.90
2017,06,25,12,23,23.90
2017,06,25,12,24,23.90
2017,06,25,12,25,23.90
2017,06,25,12,26,24.10
2017,06,25,12,27,24.10
2017,06,25,12,28,24.10
2017,06,25,12,29,24.20
2017,06,25,12,30,24.20
2017,06,25,12,31,24.20
2017,06,25,12,32,24.20
2017,06,25,12,33,24.20
2017,06,25,12,34,24.20
2017,06,25,12,35,24.20
2017,06,25,12,36,24.20
2017,06,25,12,37,24.20
2017,06,25,12,38,24.30
2017,06,25,12,39,24.30
2017,06,25,12,40,24.40
2017,06,25,12,41,24.40
2017,06,25,12,42,24.50
2017,06,25,12,43,24.50
2017,06,25,12,44,24.60
2017,06,25,12,45,24.70
2017,06,25,12,46,24.70
2017,06,25,12,47,24.80
2017,06,25,12,48,24.90
2017,06,25,12,49,24.90
2017,06,25,12,50,24.90
2017,06,25,12,51,24.90
2017,06,25,12,52,24.90
2017,06,25,12,53,24.80
2017,06,25,12,54,24.80
2017,06,25,12,55,24.80
2017,06,25,12,56,24.90
2017,06,25,12,57,24.90
2017,06,25,12,58,24.90
2017,06,25,12,59,25.00
2017,06,25,13,00,25.00
2017,06,25,13,01,25.10
2017,06,25,13,02,25.10
2017,06,25,13,03,25.10
2017,06,25,13,04,25.20
2017,06,25,13,05,25.20
2017,06,25,13,06,25.20
2017,06,25,13,07,25.10
2017,06,25,13,08,25.10
2017,06,25,13,09,25.10
2017,06,25,13,10,25.00
2017,06,25,13,11,25.00
2017,06,25,13,12,25.00
2017,06,25,13,13,24.90
2017,06,25,13,14,24.90
2017,06,25,13,15,24.90
2017,06,25,13,16,24.90
2017,06,25,13,17,24.80
2017,06,25,13,18,24.80
2017,06,25,13,19,24.80
2017,06,25,13,20,24.80
2017,06,25,13,21,24.80
2017,06,25,13,22,24.80
2017,06,25,13,23,24.80
2017,06,25,13,24,24.80
2017,06,25,13,25,24.80
2017,06,25,13,26,24.80
2017,06,25,13,27,24.80
2017,06,25,13,28,24.80
2017,06,25,13,29,24.90
2017,06,25,13,30,24.90
2017,06,25,13,31,24.90
2017,06,25,13,32,25.00
2017,06,25,13,33,25.20
2017,06,25,13,34,25.30
2017,06,25,13,35,25.40
2017,06,25,13,36,25.40
2017,06,25,13,37,25.40
2017,06,25,13,38,25.50
2017,06,25,13,39,25.60
2017,06,25,13,40,25.70
2017,06,25,13,41,25.70
2017,06,25,13,42,25.90
2017,06,25,13,43,25.90
2017,06,25,13,44,26.10
2017,06,25,13,45,26.20
2017,06,25,13,46,26.30
2017,06,25,13,47,26.40
2017,06,25,13,48,26.40
2017,06,25,13,49,26.60
2017,06,25,13,50,26.60
2017,06,25,13,51,26.60
2017,06,25,13,52,26.70
2017,06,25,13,53,26.80
2017,06,25,13,54,26.80
2017,06,25,13,55,26.80
2017,06,25,13,56,26.80
2017,06,25,13,57,26.70
2017,06,25,13,58,26.70
2017,06,25,13,59,26.70
2017,06,25,14,00,26.60
2017,06,25,14,01,26.60
2017,06,25,14,02,26.60
2017,06,25,14,03,26.60
2017,06,25,14,04,26.70
2017,06,25,14,05,26.70
2017,06,25,14,06,26.70
2017,06,25,14,07,26.70
2017,06,25,14,08,26.70
2017,06,25,14,09,26.70
2017,06,25,14,10,26.70
2017,06,25,14,11,26.70
2017,06,25,14,12,26.70
2017,06,25,14,13,26.80
2017,06,25,14,14,26.80
2017,06,25,14,15,26.90
2017,06,25,14,16,26.90
2017,06,25,14,17,26.90
2017,06,25,14,18,26.80
2017,06,25,14,19,26.80
2017,06,25,14,20,26.80
2017,06,25,14,21,26.70
2017,06,25,14,22,26.70
2017,06,25,14,23,26.70
2017,06,25,14,24,26.70
2017,06,25,14,25,26.80
2017,06,25,14,26,26.80
2017,06,25,14,27,26.90
2017,06,25,14,28,26.90
2017,06,25,14,29,27.00
2017,06,25,14,30,27.10
2017,06,25,14,31,27.10
2017,06,25,14,32,27.20
2017,06,25,14,33,27.20
2017,06,25,14,34,27.30
2017,06,25,14,35,27.30
2017,06,25,14,36,27.30
2017,06,25,14,37,27.30
2017,06,25,14,38,27.30
2017,06,25,14,39,27.40
2017,06,25,14,40,27.50
2017,06,25,14,41,27.60
2017,06,25,14,42,27.60
2017,06,25,14,43,27.60
2017,06,25,14,44,27.60
2017,06,25,14,45,27.60
2017,06,25,14,46,27.40
2017,06,25,14,47,27.40
2017,06,25,14,48,27.40
2017,06,25,14,49,27.40
2017,06,25,14,50,27.40
2017,06,25,14,51,27.40
2017,06,25,14,52,27.40
2017,06,25,14,53,27.40
2017,06,25,14,54,27.40
2017,06,25,14,55,27.40
2017,06,25,14,56,27.40
2017,06,25,14,57,27.40
2017,06,25,14,58,27.50
2017,06,25,14,59,27.60
2017,06,25,15,00,27.60
2017,06,25,15,01,27.60
2017,06,25,15,02,27.60
2017,06,25,15,03,27.60
2017,06,25,15,04,27.60
2017,06,25,15,05,27.60
2017,06,25,15,06,27.40
2017,06,25,15,07,27.40
2017,06,25,15,08,27.40
2017,06,25,15,09,27.30
2017,06,25,15,10,27.30
2017,06,25,15,11,27.30
2017,06,25,15,12,27.30
2017,06,25,15,13,27.30
2017,06,25,15,14,27.30
2017,06,25,15,15,27.30
2017,06,25,15,16,27.30
2017,06,25,15,17,27.30
2017,06,25,15,18,27.30
2017,06,25,15,19,27.30
2017,06,25,15,20,27.30
2017,06,25,15,21,27.30
2017,06,25,15,22,27.30
2017,06,25,15,23,27.30
2017,06,25,15,24,27.40
2017,06,25,15,25,27.40
2017,06,25,15,26,27.40
2017,06,25,15,27,27.60
2017,06,25,15,28,27.60
2017,06,25,15,29,27.70
2017,06,25,15,30,27.80
2017,06,25,15,31,27.80
2017,06,25,15,32,27.80
2017,06,25,15,33,27.80
2017,06,25,15,34,27.80
2017,06,25,15,35,27.80
2017,06,25,15,36,27.80
2017,06,25,15,37,27.90
2017,06,25,15,38,27.90
2017,06,25,15,39,27.90
2017,06,25,15,40,27.90
2017,06,25,15,41,27.80
2017,06,25,15,42,27.80
2017,06,25,15,43,27.80
2017,06,25,15,44,27.80
2017,06,25,15,45,27.80
2017,06,25,15,46,27.80
2017,06,25,15,47,27.80
2017,06,25,15,48,27.80
2017,06,25,15,49,27.90
2017,06,25,15,50,27.90
2017,06,25,15,51,27.90
2017,06,25,15,52,27.90
2017,06,25,15,53,27.90
2017,06,25,15,54,28.00
2017,06,25,15,55,28.00
2017,06,25,15,56,28.00
2017,06,25,15,57,28.00
2017,06,25,15,58,28.10
2017,06,25,15,59,28.10
2017,06,25,16,00,28.20
2017,06,25,16,01,28.30
2017,06,25,16,02,28.40
2017,06,25,16,03,28.50
2017,06,25,16,04,28.60
2017,06,25,16,05,28.70
2017,06,25,16,06,28.90
2017,06,25,16,07,28.90
2017,06,25,16,08,28.90
2017,06,25,16,09,29.00
2017,06,25,16,10,29.10
2017,06,25,16,11,29.20
2017,06,25,16,12,29.20
2017,06,25,16,13,29.30
2017,06,25,16,14,29.30
2017,06,25,16,15,29.30
2017,06,25,16,16,29.30
2017,06,25,16,17,29.40
2017,06,25,16,18,29.50
2017,06,25,16,19,29.60
2017,06,25,16,20,29.70
2017,06,25,16,21,29.80
2017,06,25,16,22,29.90
2017,06,25,16,23,30.00
2017,06,25,16,24,30.00
2017,06,25,16,25,29.90
2017,06,25,16,26,29.80
2017,06,25,16,27,29.70
2017,06,25,16,28,29.60
2017,06,25,16,29,29.60
2017,06,25,16,30,29.50
2017,06,25,16,31,29.50
2017,06,25,16,32,29.50
2017,06,25,16,33,29.50
2017,06,25,16,34,29.40
2017,06,25,16,35,29.30
2017,06,25,16,36,29.20
2017,06,25,16,37,29.10
2017,06,25,16,38,29.00
2017,06,25,16,39,28.90
2017,06,25,16,40,28.90
2017,06,25,16,41,28.90
2017,06,25,16,42,28.90
2017,06,25,16,43,28.90
2017,06,25,16,44,28.90
2017,06,25,16,45,28.90
2017,06,25,16,46,28.90
2017,06,25,16,47,28.90
2017,06,25,16,48,28.80
2017,06,25,16,49,28.80
2017,06,25,16,50,28.70
2017,06,25,16,51,28.70
2017,06,25,16,52,28.70
2017,06,25,16,53,28.70
2017,06,25,16,54,28.70
2017,06,25,16,55,28.70
2017,06,25,16,56,28.70
2017,06,25,16,57,28.60
2017,06,25,16,58,28.60
2017,06,25,16,59,28.60
2017,06,25,17,00,28.60
2017,06,25,17,01,28.60
2017,06,25,17,02,28.60
2017,06,25,17,03,28.50
2017,06,25,17,04,28.40
2017,06,25,17,05,28.40
2017,06,25,17,06,28.40
2017,06,25,17,07,28.50
2017,06,25,17,08,28.60
2017,06,25,17,09,28.60
2017,06,25,17,10,28.70
2017,06,25,17,11,28.80
2017,06,25,17,12,28.80
2017,06,25,17,13,28.90
2017,06,25,17,14,28.90
2017,06,25,17,15,29.00
2017,06,25,17,16,29.10
2017,06,25,17,17,29.10
2017,06,25,17,18,29.20
2017,06,25,17,19,29.20